• Join FlightAware (Why Join?)
  • Login
  • US Flag 
09:24AM EST


 

Airport Tracker/Info


-or-


 

Live Flight TrackerFlight Track Log ✈ EJA982 ✈ 25-Apr-2013 ✈ KILG - KSAV

Flight Track Log - Related Links

Times and Time Zones

All times are in EDT time to prevent confusion due to time zone crossing. See the EJA982 flight status page for this flight to view local times or setup timezone preferences in your user account.

Time Position Orientation Groundspeed Altitude Reporting Facility
EDT Latitude Longitude Course Direction KTS MPH feet Rate Location/Type
08:38AM 39.6889 -75.6014 339° North 146 168 500  Level FAA TRACON SMA TRACON (SMA)
08:38AM 39.7075 -75.6108 339° North 207 238 1,600 2,220 Climbing FAA TRACON SMA TRACON (SMA)
08:39AM 39.7094 -75.6378 275° West 197 227 2,000 1,320 Climbing FAA TRACON SMA TRACON (SMA)
08:39AM 39.6953 -75.6544 222° Southwest 232 267 2,500 2,220 Climbing FAA TRACON SMA TRACON (SMA)
08:39AM 39.6747 -75.6528 176° South 238 274 3,500 3,900 Climbing FAA TRACON SMA TRACON (SMA)
08:40AM 39.6567 -75.6278 133° Southeast 266 306 5,100 4,200 Climbing FAA TRACON SMA TRACON (SMA)
08:40AM 39.6483 -75.5994 111° Southeast 278 320 6,300 3,720 Climbing FAA TRACON SMA TRACON (SMA)
08:40AM 39.6411 -75.5703 108° East 284 327 7,600 4,620 Climbing FAA TRACON SMA TRACON (SMA)
08:41AM 39.6319 -75.5289 106° East 299 344 9,400 4,320 Climbing FAA TRACON SMA TRACON (SMA)
08:41AM 39.6250 -75.4947 105° East 317 365 10,500 2,700 Climbing FAA TRACON SMA TRACON (SMA)
08:41AM 39.6086 -75.4556 118° Southeast 370 426 11,200 2,100 Climbing FAA TRACON SMA TRACON (SMA)
08:42AM 39.5819 -75.4269 140° Southeast 374 430 11,900 1,200 Climbing FAA TRACON SMA TRACON (SMA)
08:42AM 39.5514 -75.4136 161° South 396 456 12,000 2,100 Climbing FAA TRACON SMA TRACON (SMA)
08:42AM 39.5175 -75.4119 178° South 388 447 13,300 5,100 Climbing FAA TRACON SMA TRACON (SMA)
08:43AM 39.4789 -75.4050 172° South 367 422 15,400 3,960 Climbing FAA TRACON SMA TRACON (SMA)
08:43AM 39.4478 -75.4011 174° South 367 422 15,900 900 Climbing FAA TRACON SMA TRACON (SMA)
08:43AM 39.4181 -75.3969 174° South 373 429 16,000 1,500 Climbing FAA TRACON SMA TRACON (SMA)
08:44AM 39.3750 -75.3947 178° South 382 440 16,900 2,820 Climbing FAA TRACON SMA TRACON (SMA)
08:44AM 39.3417 -75.3919 176° South 380 437 17,900 1,500 Climbing FAA TRACON SMA TRACON (SMA)
08:44AM 39.3139 -75.3881 174° South 373 429 17,900 120 Level FAA TRACON SMA TRACON (SMA)
08:45AM 39.3028 -75.3883 181° South 371 427 18,000 120 Climbing FAA TRACON SMA TRACON (SMA)
08:45AM 39.2469 -75.3836 176° South 373 429 18,000  Level FAA TRACON SMA TRACON (SMA)
08:46AM 39.2469 -75.3836 349° North 373 429 18,000 1,260 Level FAA TRACON SMA TRACON (SMA)
08:46AM 39.0842 -75.3992 184° South 379 436 19,900 2,340 Climbing Washington Center
08:47AM 38.9797 -75.4153 187° South 385 443 22,300 2,340 Climbing Washington Center
08:48AM 38.8819 -75.4342 189° South 385 443 24,600 2,100 Climbing Washington Center
08:49AM 38.7778 -75.4478 186° South 380 437 26,500 1,800 Climbing Washington Center
08:50AM 38.6692 -75.4694 189° South 386 444 28,300 1,500 Climbing Washington Center
08:51AM 38.5589 -75.4828 185° South 397 457 29,600 1,260 Climbing Washington Center
08:52AM 38.4419 -75.4989 186° South 410 472 30,900 1,020 Climbing Washington Center
08:53AM 38.3294 -75.5281 191° South 415 478 31,700 540 Climbing Washington Center
08:54AM 38.2314 -75.6156 215° Southwest 410 472 32,000 120 Climbing Washington Center
08:55AM 38.1356 -75.7053 216° Southwest 420 483 32,000  Level Washington Center
08:56AM 38.0375 -75.8053 219° Southwest 442 509 32,000  Level Washington Center
08:57AM 37.9350 -75.8944 214° Southwest 452 520 32,000 60 Level Washington Center
08:58AM 37.8347 -75.9861 216° Southwest 457 526 32,200 60 Climbing Washington Center
08:59AM 37.7383 -76.0856 219° Southwest 457 526 32,200 480 Level Washington Center
09:00AM 37.6358 -76.1714 214° Southwest 457 526 33,200 840 Climbing Washington Center
09:01AM 37.5394 -76.2622 217° Southwest 451 519 33,900 360 Climbing Washington Center
09:02AM 37.4386 -76.3531 216° Southwest 451 519 34,000  Climbing Washington Center
09:03AM 37.3381 -76.4461 216° Southwest 451 519 34,000 300 Level Washington Center
09:04AM 37.2392 -76.5336 215° Southwest 451 519 34,600 780 Climbing Washington Center
09:05AM 37.1406 -76.6261 217° Southwest 451 519 35,600 660 Climbing Washington Center
09:06AM 37.0417 -76.7161 216° Southwest 456 525 36,000 180 Climbing Washington Center
09:07AM 36.9428 -76.8028 215° Southwest 456 525 36,000  Level Washington Center
09:08AM 36.8481 -76.8922 217° Southwest 446 513 36,000  Level Washington Center
09:09AM 36.7511 -76.9761 215° Southwest 440 506 36,000  Level Washington Center
09:10AM 36.6583 -77.0625 217° Southwest 434 499 36,000  Level Washington Center
09:11AM 36.5675 -77.1514 218° Southwest 429 494 36,000  Level Washington Center
09:12AM 36.4764 -77.2400 218° Southwest 424 488 36,000  Level Washington Center
09:13AM 36.3856 -77.3233 216° Southwest 418 481 36,000  Level Washington Center
09:14AM 36.2925 -77.4089 217° Southwest 418 481 36,000  Level Washington Center
09:15AM 36.2161 -77.4842 218° Southwest 412 474 36,000  Level Washington Center
09:16AM 36.1253 -77.5694 217° Southwest 412 474 36,000  Level Washington Center
09:17AM 36.0319 -77.6544 216° Southwest 412 474 36,000  Level Washington Center
09:18AM 35.9386 -77.7367 216° Southwest 412 474 36,000  Level Washington Center
09:19AM 35.8411 -77.8161 213° Southwest 417 480 36,000  Level Washington Center
09:20AM 35.7417 -77.8900 211° Southwest 417 480 36,000  Level Washington Center
09:21AM 35.6422 -77.9664 212° Southwest 424 488 36,000  Level Washington Center
09:22AM 35.5447 -78.0453 213° Southwest 419 482 36,000  Level Washington Center
09:23AM 35.4450 -78.1186 211° Southwest 419 482 36,000  Level Washington Center
09:24AM 35.3475 -78.1972 213° Southwest 419 482 36,000  Level Washington Center
09:25AM 35.2475 -78.2753 213° Southwest 419 482 36,000  Level Washington Center
09:26AM 35.1478 -78.3533 213° Southwest 419 482 36,000  Level Washington Center
09:27AM 35.0372 -78.4356 211° Southwest 419 482 36,000  Level Washington Center
09:28AM 34.9394 -78.5108 212° Southwest 419 482 36,000  Level Washington Center
09:32AM 34.6075 -78.7658 212° Southwest 426 490 36,000  Level Jacksonville Center
09:33AM 34.5078 -78.8411 212° Southwest 421 484 36,000  Level Jacksonville Center
09:34AM 34.4122 -78.9211 215° Southwest 426 490 36,000  Level Jacksonville Center
09:35AM 34.3103 -78.9961 211° Southwest 426 490 36,000  Level Jacksonville Center
09:36AM 34.2147 -79.0758 215° Southwest 426 490 36,000  Level Jacksonville Center
09:37AM 34.1236 -79.1675 220° Southwest 421 484 36,000  Level Jacksonville Center
09:38AM 34.0386 -79.2614 222° Southwest 426 490 36,000  Level Jacksonville Center
09:39AM 33.9517 -79.3525 221° Southwest 426 490 36,000  Level Jacksonville Center
09:40AM 33.8603 -79.4489 221° Southwest 426 490 36,000 -540 Level Jacksonville Center
09:41AM 33.7711 -79.5397 220° Southwest 419 482 35,000 -1,260 Descending Jacksonville Center
09:42AM 33.6858 -79.6328 222° Southwest 419 482 33,500 -1,560 Descending Jacksonville Center
09:43AM 33.5983 -79.7233 221° Southwest 424 488 32,000 -1,500 Descending Jacksonville Center
09:44AM 33.5069 -79.8186 221° Southwest 429 494 30,500 -1,500 Descending Jacksonville Center
09:45AM 33.4131 -79.9167 221° Southwest 434 499 29,000 -1,560 Descending Jacksonville Center
09:46AM 33.3172 -80.0142 220° Southwest 452 520 27,400 -1,560 Descending Jacksonville Center
09:47AM 33.2317 -80.1039 221° Southwest 457 526 25,900 -1,320 Descending Jacksonville Center
09:48AM 33.1378 -80.2011 221° Southwest 457 526 24,800 -960 Descending Jacksonville Center
09:49AM 33.0417 -80.2956 219° Southwest 449 517 24,000 -540 Descending Jacksonville Center
09:50AM 32.9497 -80.3900 221° Southwest 449 517 23,800 -1,680 Descending Jacksonville Center
09:51AM 32.8575 -80.4864 221° Southwest 449 517 20,700 -2,700 Descending Jacksonville Center
09:52AM 32.7694 -80.5753 220° Southwest 442 509 18,400 -2,340 Descending Jacksonville Center
09:53AM 32.6856 -80.6614 221° Southwest 426 490 16,100 -2,340 Descending Jacksonville Center
09:54AM 32.5972 -80.7497 220° Southwest 419 482 13,800 -2,160 Descending Jacksonville Center
09:55AM 32.5214 -80.8256 220° Southwest 398 458 11,800 -1,800 Descending Jacksonville Center
09:56AM 32.4514 -80.8936 219° Southwest 359 413 10,200 -1,500 Descending Jacksonville Center
09:57AM 32.3808 -80.9172 196° South 273 314 8,800 -1,140 Descending Jacksonville Center
09:58AM 32.3058 -80.9311 189° South 273 314 8,000 -1,380 Descending Jacksonville Center
09:59AM 32.2289 -80.9475 190° South 267 307 6,100 -1,800 Descending Jacksonville Center
10:00AM 32.1561 -80.9639 191° South 261 300 4,500 -1,260 Descending Jacksonville Center
10:01AM 32.1214 -81.0258 237° Southwest 227 261 3,600 -1,200 Descending Jacksonville Center
10:02AM 32.1267 -81.0869 276° West 202 232 2,200 -1,440 Descending Jacksonville Center
10:03AM 32.1275 -81.1483 271° West 180 207 800 -900 Descending Jacksonville Center
10:04AM 32.1261 -81.2025 268° West 165 190 400 -420 Descending Jacksonville Center
10:06AM 32.1276 -81.2021 180° South  Level Estimated
10:13AM 32.1276 -81.2021 180° South  Level Estimated
10:14AM 32.1276 -81.2021 180° South  Level Estimated
10:15AM 32.1276 -81.2021 180° South  Level Estimated